Temperature
-0 1 0 1 1 1 2 2 2 3 3 3 3 2 2 2 2 3 3 4 5 5 6 6 6 6 6 6 6 6 6 6 6 5 5 5 5 4 4 4 4 4 4 4
-0 1 1 1 1 1 1 2 2 2 2 2 2 2 1 1 2 2 3 3 4 5 5 5 6 6 5 5 5 5 5 5 5 5 5 4 4 4 4 4 3 3 3 3
-1 0 1 0 0 0 0 0 1 2 2 1 1 1 1 1 1 2 2 3 4 4 5 5 5 5 5 5 5 5 5 5 4 4 4 4 4 3 3 3 3 3 3 3
-1 -0 -0 1 0 -0 0 0 0 1 1 1 1 1 1 2 2 2 2 3 3 4 4 5 5 5 5 4 5 4 4 4 4 4 4 3 3 3 3 3 3 3 2 2
-2 -1 -0 0 -0 -1 -1 -0 -1 -0 0 0 0 1 1 1 2 2 2 3 3 4 4 4 4 4 4 4 4 4 4 3 3 3 3 3 3 3 3 2 2 2 2 2
-3 -1 -1 -0 -1 -1 -0 -0 -1 -1 -1 -1 -0 0 0 1 1 2 2 3 3 3 3 3 3 3 4 3 3 3 3 3 3 3 3 3 2 2 2 2 2 2 1 1
-3 -2 -2 -2 -2 -1 -0 -0 -1 -2 -1 -1 -1 -0 -0 0 1 1 2 2 2 3 3 3 3 3 3 3 3 3 2 2 2 2 2 2 2 2 2 1 1 1 1 1
-4 -3 -2 -2 -2 -2 -2 -2 -2 -2 -1 -1 -1 -1 -1 -0 0 0 1 1 2 2 2 2 2 2 2 2 2 2 2 2 2 2 2 1 1 1 1 1 1 1 1 1
-4 -3 -3 -3 -3 -3 -3 -3 -2 -2 -2 -1 -2 -2 -1 -1 -1 -0 0 1 1 1 1 1 1 1 2 1 1 1 1 1 1 1 1 1 1 1 1 0 0 0 0 -0
-4 -4 -4 -3 -3 -3 -3 -3 -2 -2 -2 -2 -2 -2 -2 -2 -1 -1 -0 -0 0 0 0 0 0 1 1 1 1 1 1 1 1 1 0 0 0 0 -0 -0 -0 -0 -1 -1
-5 -5 -4 -4 -4 -3 -3 -3 -3 -3 -2 -2 -2 -2 -2 -2 -2 -1 -1 -1 -1 -0 -0 -0 -0 -0 -0 0 0 0 0 0 -0 -0 -0 -0 -1 -1 -1 -1 -1 -1 -1 -2
-5 -5 -5 -5 -4 -4 -4 -3 -3 -3 -3 -3 -3 -3 -2 -2 -2 -2 -2 -1 -1 -1 -1 -1 -1 -1 -1 -1 -1 -0 -0 -1 -1 -1 -1 -1 -1 -1 -2 -2 -2 -2 -2 -2
-5 -5 -5 -5 -5 -4 -4 -4 -4 -4 -4 -4 -3 -3 -3 -3 -3 -3 -2 -2 -2 -2 -2 -1 -1 -1 -1 -1 -1 -1 -1 -1 -1 -1 -1 -2 -2 -2 -2 -2 -2 -2 -3 -3
-5 -5 -5 -5 -5 -5 -5 -4 -4 -4 -4 -4 -4 -4 -3 -3 -3 -3 -3 -3 -3 -2 -2 -2 -2 -2 -2 -2 -2 -2 -2 -2 -2 -2 -2 -2 -3 -2 -3 -3 -2 -3 -3 -3
-6 -5 -5 -5 -5 -5 -5 -5 -5 -5 -5 -5 -4 -4 -4 -4 -4 -4 -4 -3 -3 -3 -3 -3 -3 -3 -3 -3 -3 -2 -2 -2 -3 -3 -3 -3 -3 -3 -3 -3 -3 -3 -3 -3
-6 -5 -5 -5 -5 -5 -5 -5 -5 -5 -5 -5 -5 -5 -5 -5 -4 -4 -4 -4 -4 -4 -4 -3 -3 -3 -3 -3 -3 -3 -3 -3 -3 -3 -4 -4 -4 -4 -4 -4 -4 -4 -4 -4
-6 -6 -6 -6 -6 -6 -6 -6 -5 -5 -5 -5 -5 -5 -5 -5 -5 -5 -5 -4 -4 -4 -4 -4 -4 -4 -4 -4 -4 -4 -4 -4 -4 -4 -4 -4 -4 -4 -4 -4 -5 -4 -5 -5
-6 -6 -6 -6 -6 -6 -6 -6 -6 -6 -6 -6 -6 -6 -6 -5 -5 -5 -5 -5 -5 -5 -5 -5 -5 -5 -4 -4 -4 -4 -4 -4 -4 -4 -4 -5 -5 -5 -5 -5 -5 -5 -5 -5
-6 -6 -6 -6 -6 -6 -6 -6 -6 -6 -6 -6 -6 -6 -6 -6 -6 -6 -6 -6 -5 -5 -5 -5 -5 -5 -5 -5 -5 -5 -5 -5 -5 -5 -5 -5 -5 -5 -5 -5 -5 -5 -5 -5
-7 -7 -7 -7 -7 -7 -7 -7 -7 -7 -7 -7 -7 -7 -7 -7 -7 -7 -6 -6 -6 -6 -6 -6 -6 -5 -5 -5 -5 -5 -5 -5 -5 -5 -5 -5 -5 -6 -6 -6 -6 -6 -6 -6
-7 -7 -7 -7 -7 -7 -7 -7 -7 -7 -7 -7 -7 -7 -7 -7 -7 -7 -7 -7 -7 -7 -7 -7 -6 -6 -6 -6 -6 -6 -6 -6 -6 -6 -6 -6 -6 -6 -6 -6 -6 -6 -6 -6
-7 -7 -7 -7 -7 -8 -8 -8 -8 -8 -8 -8 -8 -8 -8 -8 -8 -8 -8 -7 -7 -7 -7 -7 -7 -6 -6 -6 -6 -6 -6 -6 -6 -6 -7 -7 -7 -6 -6 -6 -6 -6 -6 -6
-8 -8 -8 -8 -8 -8 -8 -8 -8 -8 -8 -8 -8 -8 -8 -8 -8 -8 -8 -8 -8 -8 -7 -7 -7 -7 -7 -7 -7 -7 -7 -7 -7 -7 -7 -7 -7 -7 -7 -7 -7 -7 -6 -6
-8 -8 -8 -8 -8 -8 -8 -9 -9 -9 -9 -9 -9 -9 -9 -9 -8 -8 -8 -8 -8 -8 -8 -8 -8 -7 -7 -7 -7 -7 -7 -7 -7 -8 -8 -8 -7 -7 -7 -7 -7 -7 -7 -7
-8 -9 -9 -9 -9 -9 -9 -9 -9 -9 -9 -9 -9 -9 -9 -9 -9 -9 -9 -8 -8 -8 -8 -8 -8 -8 -8 -8 -8 -8 -8 -8 -8 -8 -8 -8 -8 -8 -7 -7 -7 -7 -7 -7
-9 -9 -9 -9 -9 -9 -9 -9 -9 -9 -9 -9 -9 -9 -9 -9 -9 -9 -9 -9 -9 -8 -8 -8 -8 -8 -8 -8 -8 -8 -8 -8 -8 -8 -8 -8 -8 -8 -8 -7 -7 -7 -7 -7
-9 -9 -9 -9 -9 -10 -10 -10 -10 -10 -10 -9 -9 -9 -9 -9 -9 -9 -9 -9 -9 -9 -9 -9 -8 -8 -8 -8 -8 -8 -8 -8 -8 -8 -8 -8 -8 -8 -7 -7 -7 -7 -7 -7
Wind_Speed
4 5 3 4 5 6 6 6 7 8 7 6 4 2 2 1 2 3 3 3 2 2 2 2 3 3 4 4 4 5 5 5 4 3 3 4 3 3 2 2 1 1 1 1
3 4 3 4 4 5 6 5 5 5 7 3 2 1 1 1 1 1 2 2 1 1 2 2 3 3 4 4 4 5 5 4 4 4 4 3 3 3 3 2 2 1 1 1
3 5 2 4 4 4 3 3 5 7 7 1 1 1 1 1 1 1 1 1 0 1 1 2 3 4 4 4 4 5 5 4 4 4 4 3 3 3 3 2 2 1 1 1
1 1 3 4 1 2 3 2 2 3 3 2 3 2 1 1 1 1 0 1 1 0 1 1 2 3 4 4 5 5 5 4 4 4 3 3 3 3 2 1 1 0 1 2
1 2 4 3 3 2 1 3 2 2 3 1 1 2 3 3 1 0 1 1 1 1 1 3 3 3 5 5 5 5 4 3 3 4 4 3 2 2 1 2 1 1 1 2
1 2 4 3 6 6 1 3 4 2 2 0 1 1 3 3 3 3 3 2 2 3 3 4 3 4 6 5 4 3 3 3 3 3 4 3 2 2 1 1 1 1 1 2
2 2 3 5 8 3 2 4 6 4 2 1 1 3 1 2 2 3 3 3 3 4 4 3 3 5 6 4 3 2 3 3 3 3 3 3 2 2 2 1 1 1 1 2
1 1 4 5 4 0 4 5 5 4 3 1 1 2 3 3 3 4 4 4 4 5 5 4 3 5 5 3 2 3 4 4 3 3 2 3 3 2 2 2 2 1 2 3
3 3 3 2 3 4 4 4 4 4 3 2 2 2 3 3 3 4 4 4 4 5 5 5 4 4 5 2 3 4 5 4 3 3 3 3 3 2 2 2 1 1 1 2
2 4 4 4 5 5 5 4 4 3 3 2 2 2 3 3 3 4 4 4 4 5 5 4 4 4 3 3 4 5 5 4 3 4 3 3 2 2 1 1 1 1 2 2
3 5 5 4 5 6 6 5 5 5 5 3 3 3 2 3 3 3 4 4 4 4 4 3 4 4 4 3 5 6 5 4 3 3 3 2 2 1 1 0 0 1 1 2
3 4 3 5 6 6 5 5 5 5 5 5 3 2 3 3 3 3 3 3 4 4 4 3 4 4 4 3 4 5 4 3 3 2 2 2 2 3 4 3 4 5 4 4
4 4 3 4 5 5 4 5 5 5 4 4 4 4 3 3 3 4 4 4 3 3 3 3 4 4 3 3 3 4 3 2 2 2 2 2 2 2 3 4 5 6 6 6
4 2 2 3 4 5 4 4 5 6 6 5 4 4 4 4 4 5 4 3 3 4 4 4 4 4 3 3 3 4 3 3 2 1 1 1 1 1 1 1 3 4 5 7
3 2 1 2 3 4 4 4 5 6 6 6 5 5 5 5 4 4 4 4 4 5 4 4 4 3 3 3 3 3 2 2 2 1 1 1 1 1 1 1 2 2 3 4
4 3 2 2 3 4 5 4 4 4 5 5 5 5 4 4 4 4 4 4 4 4 3 3 3 3 2 3 3 2 2 2 2 1 1 1 1 1 1 1 2 2 3 3
1 2 2 2 3 4 4 3 3 3 3 4 4 4 4 4 5 5 5 5 4 4 3 3 3 3 3 2 2 2 1 1 2 1 1 0 0 1 1 1 2 2 3 4
0 1 1 1 1 2 3 3 3 3 3 3 3 4 4 4 4 3 4 4 4 4 4 3 3 3 2 2 2 1 1 1 1 1 0 0 1 1 1 2 2 3 3 5
1 1 1 1 1 1 1 2 3 3 3 3 3 4 4 3 3 3 3 4 4 3 4 4 4 3 2 2 2 1 1 1 1 1 1 1 2 1 1 2 2 3 3 4
2 2 2 2 2 2 2 2 2 3 3 3 3 3 4 3 3 3 3 3 2 2 2 3 3 2 2 2 2 1 0 0 0 1 1 1 1 2 2 2 3 3 3 3
2 2 2 2 3 3 2 2 2 2 3 3 3 3 2 3 3 2 2 2 3 3 3 4 3 2 2 2 2 1 0 0 0 1 1 1 2 2 2 3 3 3 3 4
1 1 2 2 2 3 3 3 2 2 3 3 3 2 2 2 3 3 2 1 3 4 3 2 2 3 3 3 1 1 1 1 1 1 2 2 2 3 3 3 3 4 4 4
1 1 1 1 1 2 3 3 3 2 2 2 2 2 2 1 1 1 2 2 2 4 3 2 3 5 5 3 1 1 1 1 2 2 2 2 2 3 3 4 4 4 4 4
0 1 1 1 2 2 2 2 2 2 2 2 2 1 1 1 2 1 2 4 5 4 3 4 6 6 5 2 2 1 1 2 2 2 2 3 2 3 3 4 4 4 4 5
0 0 1 1 1 1 0 1 2 2 2 2 2 2 1 0 1 2 2 3 4 4 3 5 6 6 4 2 2 2 2 2 2 3 2 3 3 3 3 4 4 4 4 4
0 0 0 0 0 0 0 0 0 1 1 1 2 2 2 1 1 2 2 3 4 4 3 3 4 4 3 2 2 2 3 3 4 3 3 3 4 4 4 4 5 4 4 4
0 0 0 1 1 0 0 0 0 1 1 1 2 2 2 2 2 2 2 2 3 3 3 3 2 2 2 2 3 3 3 3 3 3 3 3 4 4 4 5 4 4 4 4
Wind_Direction
268 266 254 263 258 231 224 212 211 234 239 257 272 269 289 336 30 44 37 35 46 77 105 114 116 120 126 127 129 134 135 138 149 145 137 129 124 125 120 111 106 98 65 1
291 281 278 289 282 246 241 242 239 245 262 264 296 348 10 13 72 40 1 4 32 65 105 119 130 134 131 131 134 133 135 138 135 128 124 123 124 118 101 88 81 68 40 3
282 298 326 282 265 225 222 234 209 234 250 219 270 256 247 243 216 199 272 344 43 113 141 147 151 149 148 145 133 129 131 131 129 128 125 127 124 110 100 93 85 62 11 356
277 355 237 255 312 246 233 263 251 254 258 224 230 264 314 293 193 217 324 336 343 74 109 107 110 112 116 115 121 125 126 126 127 124 122 117 115 115 106 101 98 85 346 333
169 243 276 307 347 350 260 281 323 289 288 316 81 18 338 354 37 295 282 300 329 29 103 104 104 113 112 108 112 115 124 131 136 136 133 126 120 115 104 110 77 35 339 338
163 208 240 295 321 311 231 287 336 329 277 295 75 213 271 327 6 27 33 32 37 46 71 87 92 110 109 112 113 123 138 142 141 142 141 142 141 116 97 125 125 33 356 335
206 233 270 322 322 346 152 278 322 315 271 223 231 236 262 15 33 53 49 42 53 66 71 69 90 108 108 111 124 142 126 115 112 117 126 131 114 104 102 92 71 31 357 335
173 224 270 340 10 43 280 313 322 323 322 347 42 57 58 57 64 66 55 47 57 72 67 52 72 104 106 106 107 103 105 102 97 92 93 95 97 87 87 87 66 21 1 345
206 227 287 323 315 311 319 319 324 333 349 64 66 44 40 49 58 61 64 59 57 78 74 56 53 87 105 95 92 100 97 95 90 81 76 84 100 90 73 68 62 4 351 341
275 286 297 315 323 337 341 333 338 354 17 45 68 61 47 45 50 55 56 59 63 79 78 58 47 57 75 85 94 98 96 90 87 85 73 64 70 85 92 75 27 354 342 333
279 294 317 331 340 339 350 7 20 24 24 37 72 62 54 46 46 53 52 54 68 81 81 65 54 56 53 69 95 94 91 87 80 78 81 69 52 53 46 333 250 306 293 289
257 283 284 298 322 335 355 9 19 27 21 18 32 54 59 56 50 55 57 57 68 72 75 67 64 61 52 61 91 101 94 84 80 77 73 70 58 35 29 26 13 2 347 332
266 294 286 298 333 356 9 8 13 27 31 28 28 45 58 59 55 57 55 56 68 74 72 67 67 61 48 55 83 97 105 99 88 81 79 71 65 53 19 14 19 16 8 360
298 314 327 336 342 356 11 18 30 34 34 37 40 46 56 63 60 54 47 45 61 70 67 67 69 56 42 61 80 87 91 90 85 81 74 74 67 51 27 0 349 347 353 355
344 345 297 325 5 13 16 29 39 32 30 32 35 43 54 60 55 46 36 44 62 65 60 61 61 41 40 71 82 88 91 92 86 79 75 76 56 25 7 349 336 329 333 342
331 6 29 30 21 15 18 25 33 20 22 29 34 41 49 59 59 50 40 44 61 57 47 49 43 21 37 71 80 78 77 81 76 87 83 70 49 23 353 337 329 327 328 328
351 351 359 1 359 1 3 5 15 21 27 31 31 38 52 60 55 46 37 37 50 51 43 42 27 17 34 62 85 88 77 66 50 57 68 53 354 321 305 305 313 316 313 319
281 269 274 258 285 347 3 16 27 31 29 28 37 47 52 55 49 33 25 35 47 41 27 18 18 31 39 45 69 88 87 63 54 61 12 344 322 311 307 308 309 309 310 319
19 26 23 17 20 35 20 18 20 24 26 36 47 47 44 42 38 32 31 39 40 23 360 358 16 30 28 17 37 84 96 76 40 3 342 330 339 332 316 308 306 305 308 315
30 38 44 39 39 45 36 25 33 34 28 42 57 55 45 31 30 32 40 38 10 333 328 350 12 15 4 354 11 59 94 78 32 344 333 330 319 314 309 305 303 304 308 309
9 22 35 40 36 32 31 31 49 42 31 47 61 57 42 23 21 28 38 16 346 350 356 2 14 3 358 354 360 28 27 348 311 293 293 294 298 301 301 303 304 303 303 304
349 22 31 41 46 30 22 30 43 44 42 46 47 48 43 22 13 17 11 325 326 349 4 3 354 353 350 356 25 21 346 319 303 295 289 287 289 296 297 297 298 299 298 299
346 35 46 48 56 39 24 28 33 44 44 35 28 23 20 356 352 357 337 336 338 346 356 350 344 348 352 10 18 3 343 322 307 300 294 288 287 289 291 293 294 295 296 298
12 32 39 53 75 68 35 10 18 28 29 15 6 352 346 347 343 327 301 322 339 344 350 341 346 349 354 14 11 1 343 324 311 305 300 298 294 293 293 293 296 297 296 295
39 62 74 77 71 60 15 8 20 18 19 8 351 345 344 310 270 308 322 327 336 348 349 343 346 348 357 357 345 332 323 310 303 302 298 299 299 298 297 296 297 298 299 300
153 197 226 209 203 208 175 74 36 351 359 354 344 341 343 341 324 320 327 333 333 339 342 337 337 339 342 334 326 320 312 311 315 313 305 301 299 299 299 299 298 298 298 299
63 44 57 16 357 12 107 119 163 306 309 312 314 321 328 332 336 339 337 336 334 332 326 324 324 322 319 316 311 306 304 302 297 294 294 294 293 291 293 294 297 300 301 302
Height
1448 1445 1446 1444 1443 1442 1442 1442 1443 1439 1438 1434 1434 1434 1434 1433 1433 1433 1433 1433 1434 1435 1436 1438 1440 1443 1446 1449 1451 1454 1457 1460 1462 1464 1467 1468 1470 1472 1473 1474 1474 1475 1475 1475
1448 1443 1443 1442 1441 1440 1439 1439 1439 1437 1436 1434 1434 1434 1434 1433 1433 1433 1434 1434 1434 1435 1436 1438 1440 1443 1445 1448 1450 1453 1455 1458 1460 1463 1464 1466 1468 1469 1470 1471 1472 1472 1472 1472
1450 1444 1441 1443 1440 1440 1439 1438 1437 1436 1433 1434 1434 1433 1433 1433 1433 1433 1434 1434 1434 1435 1437 1438 1441 1443 1445 1447 1449 1452 1454 1456 1459 1461 1463 1464 1466 1467 1468 1469 1470 1470 1470 1470
1452 1448 1448 1441 1438 1437 1437 1436 1435 1433 1431 1432 1432 1432 1433 1433 1433 1433 1433 1434 1434 1435 1437 1439 1440 1442 1444 1446 1448 1450 1453 1455 1457 1459 1461 1463 1464 1465 1466 1467 1467 1468 1468 1467
1455 1452 1444 1440 1439 1439 1439 1436 1435 1434 1432 1432 1432 1432 1432 1432 1433 1433 1433 1434 1434 1435 1437 1438 1440 1442 1444 1445 1447 1450 1452 1454 1456 1458 1460 1461 1462 1463 1464 1465 1466 1466 1466 1465
1456 1452 1447 1443 1440 1437 1437 1436 1434 1433 1432 1433 1432 1434 1433 1432 1432 1432 1433 1434 1434 1435 1437 1438 1440 1441 1443 1445 1447 1449 1451 1453 1455 1457 1458 1459 1461 1462 1463 1463 1464 1464 1463 1463
1456 1453 1447 1445 1440 1437 1441 1439 1435 1433 1432 1431 1432 1432 1432 1431 1432 1432 1433 1434 1434 1435 1436 1438 1439 1441 1442 1444 1446 1448 1450 1452 1454 1455 1457 1458 1459 1460 1461 1461 1462 1462 1461 1461
1458 1455 1452 1445 1442 1443 1442 1437 1434 1432 1431 1431 1430 1431 1431 1431 1431 1432 1433 1434 1434 1435 1436 1438 1440 1441 1441 1443 1445 1447 1449 1451 1453 1454 1456 1457 1458 1459 1459 1459 1459 1459 1459 1458
1455 1453 1448 1445 1444 1442 1440 1438 1435 1432 1431 1430 1430 1431 1431 1431 1431 1432 1433 1434 1435 1436 1437 1438 1440 1441 1442 1444 1445 1447 1448 1450 1452 1453 1454 1455 1456 1457 1457 1457 1457 1456 1456 1455
1453 1448 1446 1445 1443 1441 1439 1437 1435 1433 1432 1432 1431 1431 1431 1432 1432 1433 1433 1434 1435 1436 1437 1438 1439 1441 1442 1444 1445 1447 1448 1449 1451 1452 1453 1454 1455 1455 1455 1455 1455 1454 1453 1453
1453 1449 1445 1443 1442 1441 1439 1437 1435 1434 1433 1433 1432 1432 1432 1432 1433 1433 1434 1435 1436 1436 1437 1438 1440 1441 1442 1443 1445 1446 1447 1449 1450 1451 1452 1453 1453 1453 1453 1453 1453 1452 1451 1451
1453 1449 1448 1445 1442 1441 1439 1437 1436 1435 1434 1434 1433 1433 1433 1433 1433 1434 1435 1435 1436 1437 1438 1439 1440 1441 1442 1443 1445 1446 1447 1448 1449 1450 1451 1451 1451 1452 1452 1452 1451 1451 1450 1449
1450 1448 1446 1444 1442 1441 1439 1438 1437 1436 1435 1434 1434 1433 1433 1433 1434 1435 1435 1436 1437 1437 1438 1439 1440 1441 1442 1443 1444 1445 1446 1447 1448 1449 1449 1450 1450 1449 1449 1450 1450 1449 1448 1447
1448 1447 1445 1444 1443 1441 1440 1439 1437 1436 1436 1435 1434 1434 1434 1434 1435 1435 1436 1436 1437 1438 1438 1439 1440 1441 1442 1443 1444 1445 1446 1446 1447 1447 1448 1448 1448 1448 1448 1447 1447 1446 1446 1445
1447 1446 1445 1444 1443 1441 1440 1439 1438 1437 1436 1436 1436 1435 1435 1435 1435 1436 1437 1437 1438 1438 1439 1439 1440 1441 1442 1443 1444 1444 1445 1445 1446 1446 1447 1447 1447 1447 1446 1446 1445 1444 1444 1443
1446 1445 1445 1444 1443 1442 1441 1440 1439 1438 1437 1437 1436 1436 1436 1436 1437 1437 1438 1438 1438 1438 1439 1440 1440 1441 1442 1443 1443 1444 1444 1445 1445 1445 1445 1445 1445 1445 1445 1444 1443 1442 1441 1441
1446 1445 1444 1443 1443 1442 1441 1441 1440 1439 1438 1438 1437 1437 1437 1437 1438 1438 1438 1438 1438 1439 1439 1440 1441 1441 1442 1442 1443 1443 1444 1444 1444 1444 1444 1444 1444 1443 1443 1442 1441 1440 1440 1439
1446 1445 1445 1444 1443 1442 1442 1441 1440 1440 1439 1439 1439 1438 1438 1438 1438 1438 1439 1439 1439 1439 1439 1440 1441 1441 1442 1442 1442 1443 1443 1443 1443 1443 1443 1442 1442 1442 1441 1440 1439 1439 1438 1437
1445 1444 1444 1443 1443 1442 1442 1441 1441 1440 1440 1440 1439 1439 1439 1439 1439 1439 1439 1439 1439 1439 1440 1440 1440 1440 1441 1441 1441 1442 1442 1441 1441 1441 1441 1441 1440 1440 1439 1438 1437 1436 1435 1434
1444 1444 1443 1443 1442 1442 1442 1441 1441 1441 1440 1440 1440 1439 1439 1439 1439 1439 1439 1439 1439 1439 1439 1439 1439 1439 1440 1440 1440 1440 1440 1440 1440 1439 1439 1439 1438 1438 1437 1436 1435 1434 1433 1432
1444 1443 1443 1442 1442 1442 1442 1441 1441 1441 1440 1440 1440 1439 1439 1439 1439 1439 1439 1438 1439 1439 1438 1438 1438 1438 1439 1439 1439 1439 1438 1438 1438 1437 1437 1437 1436 1435 1434 1434 1433 1432 1431 1430
1443 1443 1442 1442 1442 1441 1441 1441 1441 1441 1440 1440 1440 1440 1440 1439 1439 1439 1439 1439 1438 1438 1438 1438 1437 1437 1437 1437 1437 1437 1437 1436 1436 1435 1435 1434 1434 1433 1432 1431 1430 1430 1429 1428
1443 1442 1442 1442 1441 1441 1441 1441 1441 1441 1440 1440 1440 1440 1440 1439 1439 1439 1438 1439 1438 1437 1437 1437 1437 1437 1436 1436 1435 1435 1435 1434 1434 1433 1433 1432 1431 1430 1430 1429 1428 1427 1426 1425
1442 1442 1442 1441 1441 1441 1441 1441 1441 1440 1440 1440 1440 1440 1439 1439 1439 1439 1438 1438 1437 1437 1436 1436 1436 1435 1435 1434 1434 1433 1433 1432 1432 1431 1430 1429 1429 1428 1427 1427 1426 1425 1424 1423
1441 1441 1441 1441 1440 1440 1440 1440 1440 1440 1440 1440 1440 1439 1439 1439 1438 1438 1438 1437 1437 1436 1436 1435 1435 1434 1433 1433 1432 1432 1431 1430 1430 1429 1428 1427 1427 1426 1425 1424 1424 1423 1422 1421
1441 1440 1440 1440 1440 1440 1440 1440 1440 1440 1439 1439 1439 1439 1438 1438 1438 1437 1437 1436 1436 1435 1434 1434 1433 1432 1432 1431 1430 1430 1429 1428 1427 1427 1426 1425 1424 1424 1423 1422 1422 1421 1420 1419
1439 1439 1439 1439 1439 1439 1439 1439 1439 1439 1439 1439 1438 1438 1438 1437 1437 1436 1436 1435 1434 1434 1433 1432 1431 1431 1430 1429 1428 1428 1427 1426 1425 1424 1424 1423 1422 1422 1421 1420 1420 1419 1418 1417